| time (UTC) | temp F | wind direction | speed MPH | gust MPH | rain 1hr in | rain 24hr in | rain mn in | humidity % | barometer mb |
| 20260506154526 | 53 | 336 | 4.0 | 14.0 | 0.00 | 0.00 | 0.00 | 89 | 1013.9 |
| 20260506153052 | 52 | 360 | 8.0 | 13.0 | 0.00 | 0.00 | 0.00 | 88 | 1013.4 |
| 20260506151506 | 53 | 360 | 5.0 | 10.0 | 0.00 | 0.00 | 0.00 | 87 | 1012.7 |
| 20260506150019 | 53 | 360 | 5.0 | 8.0 | 0.00 | 0.00 | 0.00 | 86 | 1014.8 |
| 20260506144551 | 54 | 360 | 4.0 | 9.0 | 0.00 | 0.00 | 0.00 | 85 | 1014.9 |
| 20260506143055 | 54 | 14 | 10.0 | 14.0 | 0.00 | 0.00 | 0.00 | 83 | 1014.5 |
| 20260506141605 | 54 | 360 | 11.0 | 16.0 | 0.00 | 0.00 | 0.00 | 82 | 1014.7 |
| 20260506140021 | 55 | 360 | 9.0 | 15.0 | 0.00 | 0.00 | 0.00 | 82 | 1014.3 |
| 20260506134550 | 55 | 10 | 10.0 | 20.0 | 0.00 | 0.00 | 0.00 | 81 | 1013.1 |
| 20260506133128 | 56 | 360 | 10.0 | 17.0 | 0.00 | 0.00 | 0.00 | 81 | 1012.8 |
| 20260506131513 | 57 | 9 | 10.0 | 14.0 | 0.00 | 0.00 | 0.00 | 80 | 1012.9 |
| 20260506130040 | 57 | 27 | 8.0 | 15.0 | 0.00 | 0.00 | 0.00 | 81 | 1012.3 |
| 20260506124606 | 57 | 360 | 8.0 | 12.0 | 0.00 | 0.00 | 0.00 | 81 | 1011.9 |
| 20260506123010 | 57 | 9 | 7.0 | 13.0 | 0.00 | 0.00 | 0.00 | 81 | 1011.9 |
| 20260506121532 | 57 | 360 | 7.0 | 11.0 | 0.00 | 0.00 | 0.00 | 81 | 1011.5 |
| 20260506120108 | 58 | 9 | 5.0 | 13.0 | 0.00 | 0.00 | 0.00 | 81 | 1011.3 |
| 20260506114616 | 58 | 13 | 5.0 | 10.0 | 0.00 | 0.00 | 0.00 | 82 | 1011.2 |
| 20260506113007 | 58 | 32 | 6.0 | 13.0 | 0.00 | 0.00 | 0.00 | 82 | 1011.3 |
| 20260506111521 | 58 | 335 | 10.0 | 14.0 | 0.00 | 0.00 | 0.00 | 82 | 1011.1 |
| 20260506110043 | 59 | 18 | 10.0 | 14.0 | 0.00 | 0.00 | 0.00 | 83 | 1011.0 |
| 20260506104637 | 59 | 22 | 6.0 | 12.0 | 0.00 | 0.00 | 0.00 | 83 | 1010.5 |
| 20260506103023 | 60 | 360 | 5.0 | 9.0 | 0.00 | 0.00 | 0.00 | 82 | 1010.3 |
| 20260506101529 | 60 | 18 | 5.0 | 10.0 | 0.00 | 0.00 | 0.00 | 81 | 1010.1 |
| 20260506100049 | 60 | 20 | 6.0 | 12.0 | 0.00 | 0.00 | 0.00 | 81 | 1009.8 |
| 20260506094509 | 61 | 5 | 7.0 | 11.0 | 0.00 | 0.00 | 0.00 | 81 | 1009.4 |
| 20260506093019 | 61 | 29 | 7.0 | 10.0 | 0.00 | 0.00 | 0.00 | 81 | 1009.4 |
| 20260506091536 | 61 | 347 | 5.0 | 10.0 | 0.00 | 0.00 | 0.00 | 80 | 1009.3 |
| 20260506090050 | 62 | 355 | 5.0 | 11.0 | 0.00 | 0.00 | 0.00 | 80 | 1009.2 |
| 20260506084601 | 62 | 348 | 6.0 | 11.0 | 0.00 | 0.00 | 0.00 | 80 | 1009.2 |
| 20260506083002 | 62 | 344 | 6.0 | 10.0 | 0.00 | 0.00 | 0.00 | 80 | 1009.2 |
| 20260506081509 | 63 | 344 | 7.0 | 11.0 | 0.00 | 0.00 | 0.00 | 79 | 1009.1 |
| 20260506073041 | 64 | 30 | 5.0 | 10.0 | 0.00 | 0.00 | 0.00 | 79 | 1008.6 |
| 20260506071547 | 64 | 34 | 4.0 | 8.0 | 0.00 | 0.00 | 0.00 | 79 | 1008.7 |
| 20260506061509 | 66 | 338 | 4.0 | 9.0 | 0.00 | 0.00 | 0.00 | 78 | 1008.7 |
| 20260506050117 | 67 | 355 | 3.0 | 9.0 | 0.00 | 0.00 | 0.00 | 75 | 1008.4 |
| 20260506044515 | 68 | 340 | 5.0 | 10.0 | 0.00 | 0.00 | 0.00 | 74 | 1008.4 |
| 20260506043031 | 68 | 21 | 6.0 | 13.0 | 0.00 | 0.00 | 0.00 | 74 | 1008.6 |
| 20260506041553 | 69 | 348 | 6.0 | 13.0 | 0.00 | 0.00 | 0.00 | 74 | 1008.6 |
| 20260506040104 | 69 | 340 | 7.0 | 13.0 | 0.00 | 0.00 | 0.00 | 75 | 1008.5 |
| 20260506034508 | 70 | 343 | 8.0 | 12.0 | 0.00 | 0.00 | 0.00 | 75 | 1008.0 |
| 20260506033027 | 71 | 319 | 3.0 | 6.0 | 0.00 | 0.00 | 0.00 | 74 | 1007.7 |
| 20260506031540 | 72 | 334 | 4.0 | 6.0 | 0.00 | 0.00 | 0.00 | 73 | 1007.2 |
| 20260506030043 | 72 | 350 | 3.0 | 9.0 | 0.00 | 0.00 | 0.00 | 72 | 1006.7 |
| 20260506024550 | 73 | 311 | 3.0 | 10.0 | 0.00 | 0.00 | 0.00 | 72 | 1006.9 |
| 20260506023118 | 74 | 330 | 4.0 | 9.0 | 0.00 | 0.00 | 0.00 | 70 | 1006.3 |
| 20260506021505 | 75 | 277 | 4.0 | 9.0 | 0.00 | 0.00 | 0.00 | 70 | 1006.1 |
| 20260506020010 | 76 | 344 | 8.0 | 17.0 | 0.00 | 0.00 | 0.00 | 69 | 1005.4 |
| 20260506014522 | 78 | 314 | 8.0 | 13.0 | 0.00 | 0.00 | 0.00 | 67 | 1004.7 |
| 20260506013024 | 80 | 299 | 4.0 | 11.0 | 0.00 | 0.00 | 0.00 | 67 | 1004.0 |
| 20260506011529 | 82 | 355 | 7.0 | 17.0 | 0.00 | 0.00 | 0.00 | 67 | 1003.9 |
| 20260506010044 | 83 | 237 | 4.0 | 16.0 | 0.00 | 0.00 | 0.00 | 74 | 1003.6 |
| 20260506004535 | 84 | 158 | 9.0 | 15.0 | 0.00 | 0.00 | 0.00 | 72 | 1003.0 |
| 20260506003048 | 87 | 165 | 8.0 | 11.0 | 0.00 | 0.00 | 0.00 | 67 | 1002.9 |
| 20260506001604 | 90 | 169 | 9.0 | 13.0 | 0.00 | 0.00 | 0.00 | 61 | 1003.0 |
| 20260506000054 | 92 | 193 | 3.0 | 6.0 | 0.00 | 0.00 | 0.00 | 48 | 1002.9 |
| 20260505234616 | 92 | 232 | 2.0 | 7.0 | 0.00 | 0.00 | 0.00 | 48 | 1002.9 |
| 20260505233009 | 92 | 180 | 3.0 | 6.0 | 0.00 | 0.00 | 0.00 | 47 | 1002.8 |
| 20260505231526 | 92 | 236 | 4.0 | 10.0 | 0.00 | 0.00 | 0.00 | 46 | 1002.9 |
| 20260505230030 | 92 | 244 | 3.0 | 9.0 | 0.00 | 0.00 | 0.00 | 49 | 1002.9 |
| 20260505224552 | 91 | 215 | 5.0 | 10.0 | 0.00 | 0.00 | 0.00 | 51 | 1002.9 |
| 20260505223117 | 91 | 217 | 5.0 | 10.0 | 0.00 | 0.00 | 0.00 | 50 | 1002.8 |
| 20260505221502 | 91 | 237 | 7.0 | 12.0 | 0.00 | 0.00 | 0.00 | 51 | 1002.9 |
| 20260505220008 | 91 | 222 | 7.0 | 11.0 | 0.00 | 0.00 | 0.00 | 51 | 1002.9 |
| 20260505214516 | 91 | 222 | 5.0 | 10.0 | 0.00 | 0.00 | 0.00 | 52 | 1003.0 |
| 20260505213031 | 90 | 219 | 6.0 | 9.0 | 0.00 | 0.00 | 0.00 | 51 | 1002.9 |
| 20260505211541 | 90 | 211 | 9.0 | 12.0 | 0.00 | 0.00 | 0.00 | 52 | 1002.9 |
| 20260505210045 | 90 | 201 | 7.0 | 14.0 | 0.00 | 0.00 | 0.00 | 53 | 1003.3 |
| 20260505204609 | 90 | 190 | 7.0 | 12.0 | 0.00 | 0.00 | 0.00 | 54 | 1003.6 |
| 20260505203132 | 90 | 213 | 7.0 | 13.0 | 0.00 | 0.00 | 0.00 | 56 | 1003.5 |
| 20260505201508 | 89 | 211 | 8.0 | 13.0 | 0.00 | 0.00 | 0.00 | 57 | 1004.0 |
| 20260505200027 | 89 | 244 | 8.0 | 17.0 | 0.00 | 0.00 | 0.00 | 57 | 1004.2 |
| 20260505194550 | 88 | 236 | 9.0 | 17.0 | 0.00 | 0.00 | 0.00 | 57 | 1004.3 |
| 20260505193054 | 88 | 209 | 10.0 | 18.0 | 0.00 | 0.00 | 0.00 | 59 | 1004.3 |
| 20260505191605 | 88 | 204 | 10.0 | 13.0 | 0.00 | 0.00 | 0.00 | 62 | 1004.5 |
| 20260505190011 | 87 | 241 | 8.0 | 18.0 | 0.00 | 0.00 | 0.00 | 63 | 1004.5 |
| 20260505184534 | 87 | 203 | 10.0 | 18.0 | 0.00 | 0.00 | 0.00 | 66 | 1004.7 |
| 20260505183048 | 86 | 221 | 8.0 | 19.0 | 0.00 | 0.00 | 0.00 | 64 | 1004.9 |
| 20260505181600 | 85 | 184 | 11.0 | 18.0 | 0.00 | 0.00 | 0.00 | 65 | 1005.0 |
| 20260505180114 | 84 | 221 | 10.0 | 15.0 | 0.00 | 0.00 | 0.00 | 67 | 1005.1 |
| 20260505174506 | 84 | 198 | 10.0 | 19.0 | 0.00 | 0.00 | 0.00 | 69 | 1005.5 |
| 20260505173025 | 83 | 235 | 15.0 | 21.0 | 0.00 | 0.00 | 0.00 | 68 | 1005.4 |
| 20260505170011 | 81 | 169 | 11.0 | 16.0 | 0.00 | 0.00 | 0.00 | 72 | 1005.4 |
| 20260505164535 | 80 | 209 | 11.0 | 16.0 | 0.00 | 0.00 | 0.00 | 74 | 1005.8 |
| 20260505163051 | 79 | 233 | 9.0 | 18.0 | 0.00 | 0.00 | 0.00 | 74 | 1005.7 |
| 20260505161559 | 79 | 185 | 11.0 | 21.0 | 0.00 | 0.00 | 0.00 | 75 | 1005.5 |
| 20260505160118 | 78 | 211 | 14.0 | 20.0 | 0.00 | 0.00 | 0.00 | 76 | 1005.7 |